When you browse on this site, cookies collect data to enhance your experience and personalize the content and advertising you see.
Visit our Privacy Policy to learn more. By continuing to use the site, you agree to this use of cookies and data.
  • In Romania
  • List of Countries
  • For 7 days
  • Water Temperature
  • Satellite Maps
  • Weather Map
  • Weather Widgets
  • user-avatar
    Login

    Hourly Weather Luzhkovo

    Today, 16 January, Wednesday

    Time Temperature Precipitation Wind Pressure Humidity
    00:00 -10°C° 0 mm 4 mps 721 mmHg 91%
    01:00 -9°C° 0 mm 3 mps 721 mmHg 91%
    02:00 -9°C° 0 mm 3 mps 722 mmHg 92%
    03:00 -9°C° 0 mm 3 mps 722 mmHg 92%
    04:00 -10°C° 0 mm 3 mps 722 mmHg 92%
    05:00 -10°C° 0 mm 3 mps 722 mmHg 93%
    06:00 -10°C° 0 mm 3 mps 722 mmHg 93%
    07:00 -12°C° 0 mm 3 mps 723 mmHg 94%
    08:00 -12°C° 0 mm 3 mps 723 mmHg 94%
    09:00 -12°C° 0 mm 3 mps 723 mmHg 94%
    10:00 -10°C° 0 mm 3 mps 723 mmHg 93%
    11:00 -10°C° 0 mm 3 mps 724 mmHg 93%
    12:00 -9°C° 0 mm 3 mps 724 mmHg 92%
    13:00 -9°C° 0 mm 3 mps 724 mmHg 91%
    14:00 -8°C° 0 mm 3 mps 724 mmHg 91%
    15:00 -9°C° 0 mm 3 mps 725 mmHg 92%
    16:00 -9°C° 0 mm 3 mps 725 mmHg 92%
    17:00 -9°C° 0 mm 3 mps 725 mmHg 93%
    18:00 -9°C° 0 mm 3 mps 726 mmHg 93%
    19:00 -8°C° 0 mm 3 mps 726 mmHg 93%
    20:00 -8°C° 0 mm 3 mps 726 mmHg 93%
    21:00 -8°C° 0 mm 3 mps 726 mmHg 92%
    22:00 -8°C° 0 mm 3 mps 727 mmHg 92%
    23:00 -8°C° 0 mm 3 mps 727 mmHg 91%

    Tomorrow, 17 January, Thursday

    Time Temperature Precipitation Wind Pressure Humidity
    00:00 -9°C° 0 mm 3 mps 727 mmHg 90%
    01:00 -9°C° 0 mm 3 mps 728 mmHg 90%
    02:00 -10°C° 0 mm 3 mps 728 mmHg 89%
    03:00 -10°C° 0 mm 3 mps 728 mmHg 90%
    04:00 -10°C° 0 mm 3 mps 727 mmHg 91%
    05:00 -10°C° 0 mm 3 mps 727 mmHg 92%
    06:00 -11°C° 0.1 mm 4 mps 727 mmHg 92%
    07:00 -11°C° 0.1 mm 4 mps 726 mmHg 91%
    08:00 -12°C° 0.1 mm 5 mps 726 mmHg 91%
    09:00 -10°C° 0.4 mm 5 mps 725 mmHg 90%
    10:00 -9°C° 0.4 mm 6 mps 724 mmHg 90%
    11:00 -8°C° 0.4 mm 6 mps 724 mmHg 89%
    12:00 -6°C° 0.4 mm 6 mps 723 mmHg 88%
    13:00 -5°C° 0.4 mm 6 mps 723 mmHg 88%
    14:00 -4°C° 0.4 mm 6 mps 722 mmHg 88%
    15:00 -3°C° 0.2 mm 6 mps 722 mmHg 87%
    16:00 -3°C° 0.2 mm 6 mps 721 mmHg 87%
    17:00 -2°C° 0.2 mm 6 mps 721 mmHg 87%
    18:00 -2°C° 0.3 mm 7 mps 720 mmHg 86%
    19:00 -2°C° 0.3 mm 7 mps 720 mmHg 85%
    20:00 -2°C° 0.3 mm 7 mps 719 mmHg 85%
    21:00 -2°C° 0.1 mm 7 mps 719 mmHg 84%
    22:00 -2°C° 0.1 mm 7 mps 719 mmHg 83%
    23:00 -2°C° 0.1 mm 7 mps 718 mmHg 82%

    Day after tomorrow, 18 January, Friday

    Time Temperature Precipitation Wind Pressure Humidity
    00:00 -2°C° 0.1 mm 7 mps 719 mmHg 81%
    01:00 -2°C° 0.1 mm 8 mps 719 mmHg 80%
    02:00 -2°C° 0.1 mm 8 mps 719 mmHg 79%
    03:00 -2°C° 0.1 mm 7 mps 720 mmHg 79%
    04:00 -2°C° 0.1 mm 7 mps 721 mmHg 80%
    05:00 -2°C° 0.1 mm 7 mps 721 mmHg 80%
    06:00 -3°C° 0 mm 6 mps 722 mmHg 82%
    07:00 -4°C° 0 mm 5 mps 723 mmHg 84%
    08:00 -5°C° 0 mm 5 mps 723 mmHg 85%
    09:00 -3°C° 0 mm 4 mps 723 mmHg 87%
    10:00 -3°C° 0 mm 4 mps 723 mmHg 89%
    11:00 -1°C° 0 mm 3 mps 723 mmHg 91%
    12:00 -1°C° 0.4 mm 3 mps 723 mmHg 91%
    13:00 -2°C° 0.4 mm 4 mps 722 mmHg 91%
    14:00 -2°C° 0.4 mm 4 mps 722 mmHg 91%
    15:00 -2°C° 0.4 mm 5 mps 722 mmHg 89%
    16:00 -3°C° 0.4 mm 6 mps 722 mmHg 87%
    17:00 -5°C° 0.4 mm 8 mps 722 mmHg 85%
    18:00 -7°C° 0.5 mm 7 mps 723 mmHg 86%
    19:00 -10°C° 0.5 mm 6 mps 723 mmHg 87%
    20:00 -12°C° 0.5 mm 5 mps 724 mmHg 89%
    21:00 -13°C° 0.1 mm 5 mps 725 mmHg 88%
    22:00 -13°C° 0.1 mm 5 mps 726 mmHg 87%
    23:00 -12°C° 0.1 mm 4 mps 727 mmHg 86%

    19 January, Saturday

    Time Temperature Precipitation Wind Pressure Humidity
    00:00 -12°C° 0 mm 4 mps 728 mmHg 88%
    01:00 -14°C° 0 mm 4 mps 728 mmHg 89%
    02:00 -14°C° 0 mm 4 mps 729 mmHg 90%
    03:00 -11°C° 0.1 mm 4 mps 729 mmHg 89%
    04:00 -10°C° 0.1 mm 4 mps 729 mmHg 87%
    05:00 -8°C° 0.1 mm 5 mps 729 mmHg 86%
    06:00 -8°C° 0.2 mm 4 mps 730 mmHg 87%
    07:00 -8°C° 0.2 mm 4 mps 730 mmHg 89%
    08:00 -8°C° 0.2 mm 4 mps 730 mmHg 90%
    09:00 -8°C° 0.2 mm 4 mps 731 mmHg 88%
    10:00 -8°C° 0.2 mm 5 mps 731 mmHg 86%
    11:00 -8°C° 0.2 mm 5 mps 732 mmHg 84%
    12:00 -8°C° 0.1 mm 5 mps 732 mmHg 85%
    13:00 -8°C° 0.1 mm 5 mps 732 mmHg 86%
    14:00 -8°C° 0.1 mm 4 mps 733 mmHg 86%
    15:00 -8°C° 0.2 mm 5 mps 733 mmHg 86%
    16:00 -8°C° 0.2 mm 5 mps 733 mmHg 86%
    17:00 -8°C° 0.2 mm 5 mps 733 mmHg 86%
    18:00 -8°C° 0 mm 5 mps 733 mmHg 87%
    19:00 -9°C° 0 mm 4 mps 733 mmHg 88%
    20:00 -9°C° 0 mm 4 mps 734 mmHg 89%
    21:00 -9°C° 0 mm 4 mps 734 mmHg 88%
    22:00 -9°C° 0 mm 4 mps 734 mmHg 87%
    23:00 -9°C° 0 mm 4 mps 734 mmHg 87%

    20 January, Sunday

    Time Temperature Precipitation Wind Pressure Humidity
    00:00 -9°C° 0 mm 4 mps 734 mmHg 88%
    01:00 -9°C° 0 mm 4 mps 734 mmHg 89%
    02:00 -10°C° 0 mm 4 mps 734 mmHg 90%
    03:00 -10°C° 0 mm 4 mps 734 mmHg 91%
    04:00 -9°C° 0 mm 3 mps 734 mmHg 91%
    05:00 -9°C° 0 mm 3 mps 734 mmHg 92%
    06:00 -9°C° 0 mm 3 mps 734 mmHg 93%
    07:00 -9°C° 0 mm 3 mps 734 mmHg 93%
    08:00 -8°C° 0 mm 2 mps 735 mmHg 94%
    09:00 -8°C° 0 mm 2 mps 735 mmHg 92%
    10:00 -8°C° 0 mm 3 mps 735 mmHg 91%
    11:00 -8°C° 0 mm 3 mps 735 mmHg 90%
    12:00 -8°C° 0 mm 3 mps 735 mmHg 91%
    13:00 -7°C° 0 mm 2 mps 735 mmHg 91%
    14:00 -7°C° 0 mm 2 mps 735 mmHg 92%
    15:00 -8°C° 0 mm 2 mps 735 mmHg 93%
    16:00 -8°C° 0 mm 2 mps 735 mmHg 94%
    17:00 -8°C° 0 mm 1 mps 735 mmHg 95%
    18:00 -9°C° 0 mm 1 mps 735 mmHg 95%
    19:00 -9°C° 0 mm 1 mps 734 mmHg 96%
    20:00 -10°C° 0 mm 1 mps 734 mmHg 96%
    21:00 -9°C° 0.1 mm 1 mps 734 mmHg 96%
    22:00 -9°C° 0.1 mm 2 mps 735 mmHg 96%
    23:00 -8°C° 0.1 mm 2 mps 735 mmHg 96%

    21 January, Monday

    Time Temperature Precipitation Wind Pressure Humidity
    00:00 -9°C° 0 mm 2 mps 735 mmHg 96%
    01:00 -9°C° 0 mm 2 mps 735 mmHg 96%
    02:00 -10°C° 0 mm 2 mps 735 mmHg 97%
    03:00 -10°C° 0 mm 2 mps 735 mmHg 97%
    04:00 -9°C° 0 mm 1 mps 735 mmHg 97%
    05:00 -8°C° 0 mm 1 mps 735 mmHg 97%
    06:00 -10°C° 0 mm 2 mps 735 mmHg 97%
    07:00 -10°C° 0 mm 2 mps 735 mmHg 96%
    08:00 -10°C° 0 mm 2 mps 735 mmHg 96%
    09:00 -10°C° 0 mm 2 mps 735 mmHg 96%
    10:00 -10°C° 0 mm 2 mps 736 mmHg 95%
    11:00 -9°C° 0 mm 2 mps 736 mmHg 94%
    12:00 -9°C° 0 mm 2 mps 736 mmHg 93%
    13:00 -9°C° 0 mm 2 mps 736 mmHg 92%
    14:00 -9°C° 0 mm 2 mps 736 mmHg 91%
    15:00 -9°C° 0 mm 2 mps 736 mmHg 93%
    16:00 -9°C° 0 mm 1 mps 736 mmHg 94%
    17:00 -9°C° 0 mm 1 mps 736 mmHg 95%
    18:00 -10°C° 0 mm 1 mps 736 mmHg 96%
    19:00 -11°C° 0 mm 1 mps 737 mmHg 96%
    20:00 -11°C° 0 mm 1 mps 737 mmHg 97%
    21:00 -12°C° 0 mm 1 mps 737 mmHg 97%
    22:00 -14°C° 0 mm 2 mps 737 mmHg 97%
    23:00 -14°C° 0 mm 2 mps 738 mmHg 97%
    Show more